Regional Weather Roundup
Issued by NWS

Home | Current Version | Previous Version | Graphics & Text | Print | Product List | Glossary On
Versions: 1 2 3 4 5 6 7 8 9 10 11 12 13 14 15 16 17 18 19 20 21 22 23 24 25 26 27 28 29 30 31 32 33 34 35 36 37 38 39 40 41 42 43 44 45 46 47 48 49 50
000
ASUS43 KMKX 110259
RWRWI

WISCONSIN REGIONAL WEATHER ROUNDUP
NATIONAL WEATHER SERVICE MILWAUKEE/SULLIVAN WI
900 PM CST SUN DEC 10 2017

NOTE: "FAIR" INDICATES FEW OR NO CLOUDS BELOW 12,000 FEET WITH NO
SIGNIFICANT WEATHER AND/OR OBSTRUCTIONS TO VISIBILITY.

WIZ001-002-006>008-014>016-023>028-110400-
NORTHWEST WISCONSIN

CITY           SKY/WX    TMP DP  RH WIND       PRES   REMARKS
SUPERIOR ARPT  CLOUDY    10   8  90 CALM      30.01F
ASHLAND        CLOUDY     8   5  87 SW3       30.01F
HAYWARD        CLEAR     12   9  87 CALM      29.99S
SIREN          PTCLDY    12  10  92 CALM      30.01F
CUMBERLAND     CLOUDY    12   9  85 CALM      29.99F
RICE LAKE      FOG       12  10  93 CALM      30.02F VSB 1
CHETEK           N/A     11  10  94 MISG      30.02S
LADYSMITH      CLOUDY    13  11  92 CALM      30.01F
EAU CLAIRE     CLOUDY    18  15  88 CALM      30.02F
MENOMONIE      CLOUDY    21  18  89 E3        30.03F
NEW RICHMOND   CLOUDY    16  15  93 SE5       30.01F WCI   9
OSCEOLA        PTCLDY    15  15 100 CALM      30.04F
$$

WIZ003>005-009-010-017-018-110400-
NORTH CENTRAL WISCONSIN

CITY           SKY/WX    TMP DP  RH WIND       PRES   REMARKS
MANITOWISH WTR FLURRIES  13  12  95 CALM      29.96F
ARBOR VITAE    FLURRIES  17  12  82 CALM      29.95F
WOODRUFF       FLURRIES  17  12  82 CALM      29.95F
RHINELANDER    CLOUDY    17  11  77 W6        29.97F WCI   9
EAGLE RIVER    CLOUDY    16   8  70 W3        29.95F
LAND O LAKES   FLURRIES  14  12  91 CALM      29.96F
PHILLIPS       MOCLDY     8   7  97 CALM      29.97F
TOMAHAWK       CLOUDY    15   8  76 CALM      30.00F
MEDFORD        CLOUDY    17  11  78 CALM      30.00S
MERRILL        CLOUDY    17  10  71 CALM      30.01F
$$

WIZ029-030-035-036-043>047-110400-
CENTRAL WISCONSIN

CITY           SKY/WX    TMP DP  RH WIND       PRES   REMARKS
WAUSAU         CLOUDY    21  12  68 CALM      30.01S
MOSINEE        CLOUDY    21  14  73 NW5       30.03F WCI  15
MARSHFIELD     CLOUDY    20  13  74 N3        30.00F
STEVENS POINT  CLOUDY    21  14  75 NE5       30.03F WCI  14
WAUPACA        CLOUDY    26  14  60 NW6       30.05F WCI  19
WAUTOMA        CLOUDY    24  16  71 W6        30.06S WCI  17
WISC RAPIDS    CLOUDY    23  14  68 N7        30.05F WCI  15
CAMP DOUGLAS   CLOUDY    24  18  79 SW3       30.05F
$$

WIZ011>013-019>022-031-037>040-048>050-110400-
NORTHEAST WISCONSIN

CITY           SKY/WX    TMP DP  RH WIND       PRES   REMARKS
ANTIGO         FLURRIES  18  11  76 N5        30.00S WCI  11
SHAWANO        CLOUDY    25  14  63 NW5       30.05S WCI  19
OCONTO         CLOUDY    20   9  63 N6        30.06S WCI  12
STURGEON BAY   FLURRIES  21  12  68 N12       30.05R WCI   9
GREEN BAY      CLOUDY    24  16  71 N3        30.05S
MANITOWOC      CLOUDY    24  16  71 N7        30.06R WCI  16
APPLETON       CLOUDY    25  16  68 N6        30.03R WCI  18
CLINTONVILLE   NOT AVBL
OSHKOSH        CLOUDY    25  18  74 W5        30.04S WCI  19
$$

WIZ032>034-041-042-053>061-110400-
SOUTHWEST WISCONSIN

CITY           SKY/WX    TMP DP  RH WIND       PRES   REMARKS
LA CROSSE      CLOUDY    28  21  75 CALM      30.07S
SPARTA         CLOUDY    25  20  81 CALM      30.07R
VIROQUA        CLOUDY    25  21  85 W3        30.05R
BOSCOBEL       CLOUDY    28  19  69 NW5       30.09S WCI  23
PRAIRIE DU CHI CLOUDY    24  19  82 CALM      30.08F
PLATTEVILLE    CLEAR     26  21  84 NW3       30.06F
$$

WIZ056-057-062-063-064-067-068-110400-
SOUTH CENTRAL WISCONSIN

CITY           SKY/WX    TMP DP  RH WIND       PRES   REMARKS
REEDSBURG      CLOUDY    26  17  70 NW6       30.06S WCI  19
BARABOO/DELLS  CLOUDY    26  17  69 NW6       30.05S WCI  19
LONE ROCK      CLOUDY    27  21  78 W3        30.08F
MINERAL POINT  CLOUDY    28  23  80 N3        30.05F
MADISON        CLOUDY    25  18  74 N5        30.05F WCI  19
MIDDLETON      CLOUDY    28  20  71 NW6       30.06F WCI  22
WATERTOWN      CLOUDY    26  19  76 NW3       30.06S
MONROE         PTCLDY    25  19  80 NW3       30.06R
JANESVILLE     CLOUDY    28  19  69 N5        30.07R WCI  23
$$

WIZ051-052-058>065-066-070>072-110400-
SOUTHEAST WISCONSIN

CITY           SKY/WX    TMP DP  RH WIND       PRES   REMARKS
MILWAUKEE      CLOUDY    28  18  66 NW8       30.06S WCI  20
WAUKESHA       CLOUDY    25  18  74 W6        30.07S WCI  18
MILWAUKEE/TIMM CLOUDY    27  16  63 NW7       30.07S WCI  19
RACINE         CLOUDY    28  17  63 NW9       30.09R WCI  19
BURLINGTON     CLOUDY    35  30  83 NW7       30.07S WCI  29
KENOSHA        CLOUDY    28  18  66 NW7       30.07R WCI  21
FOND DU LAC    CLOUDY    26  16  65 W8        30.05S WCI  18
SHEBOYGAN      CLOUDY    25  19  78 N5        30.05R WCI  19
WEST BEND      CLOUDY    27  19  74 W5        30.05S WCI  21
JUNEAU         CLOUDY    25  16  70 NW5       30.06F WCI  19
$$

LSZ147-162-110400-
LAKE SUPERIOR

STATION/POSITION TIME  TEMP    WIND        PRES    WAVE
                       AIR SEA DIR/SP/G            HT/PER
                 (UTC) (F)     (DEG/KT/KT) (MB)    (FT/S)
DEVILS ISLAND    0200   21      40/  2/  3 1017.6F
SAXON HARBOR     0230   15                 1016.3F
$$

LMZ867-665-643>646-110400-
LAKE MICHIGAN

STATION/POSITION TIME  TEMP    WIND        PRES    WAVE
                       AIR SEA DIR/SP/G            HT/PER
                 (UTC) (F)     (DEG/KT/KT) (MB)    (FT/S)
NORTHPORT PIER   0240   21     330/ 13/ 21 1017.3S
KEWAUNEE LAKESHO 0230   23     340/  7/ 11 1016.9R
SHEBOYGAN LAKESH 0200   27     310/  7/  9 1018.5R
PORT WASHINGTON  0240   27     290/  4/  5 1019.0S
MILWAUKEE LAKESH 0240   28     300/  6/  7   N/A
KENOSHA   LAKESH 0200   28     340/ 13/ 16 1018.3
$$

TC  - TEMPERATURE IN CELSIUS
VSB - VISIBILITY IN STATUTE MILES
WCI - WIND CHILL INDEX
HX  - HEAT INDEX





USA.gov is the U.S. government's official web portal to all federal, state and local government web resources and services.